AS259 Weather Reports


time (UTC)temp
C
wind
direction
speed
KPH
gust
KPH
rain 1hr
cm
rain 24hr
cm
rain mn
cm
humidity
%
barometer
mb
20260507083626 10 0.0 0.0 0.00 0.00 0.00 58 1014.3
20260507082541 9 0.0 0.0 0.00 0.00 0.00 58 1014.4
20260507081517 9 0.0 0.0 0.00 0.00 0.00 57 1014.6
20260507080545 9 0.0 0.0 0.00 0.00 0.00 56 1014.6
20260507075516 9 0.0 0.0 0.00 0.00 0.00 55 1014.7
20260507074521 9 0.0 0.0 0.00 0.00 0.00 54 1014.8
20260507073535 9 0.0 0.0 0.00 0.00 0.00 53 1015.0
20260507072526 9 0.0 0.0 0.00 0.00 0.00 53 1015.1
20260507071516 8 0.0 0.0 0.00 0.00 0.00 52 1015.1
20260507070528 8 0.0 0.0 0.00 0.00 0.00 51 1015.5
20260507065544 8 0.0 0.0 0.00 0.00 0.00 51 1015.6
20260507064542 8 0.0 0.0 0.00 0.00 0.00 50 1015.6
20260507063529 8 0.0 0.0 0.00 0.00 0.00 47 1015.7
20260507062516 8 0.0 0.0 0.00 0.00 0.00 46 1015.8
20260507061518 8 0.0 0.0 0.00 0.00 0.00 46 1015.9
20260507060535 8 0.0 0.0 0.00 0.00 0.00 46 1015.9
20260507055527 9 0.0 0.0 0.00 0.00 0.00 44 1015.9
20260507054523 9 0.0 0.0 0.00 0.00 0.00 44 1016.0
20260507053539 8 0.0 0.0 0.00 0.00 0.00 46 1016.0
20260507052537 8 0.0 0.0 0.00 0.00 0.00 46 1015.9
20260507051530 9 0.0 0.0 0.00 0.00 0.00 43 1016.1
20260507050524 8 0.0 0.0 0.00 0.00 0.00 44 1016.0
20260507045519 8 0.0 0.0 0.00 0.00 0.00 46 1016.1
20260507044528 8 0.0 0.0 0.00 0.00 0.00 46 1016.2
20260507043518 8 0.0 0.0 0.00 0.00 0.00 49 1016.2
20260507042538 8 0.0 0.0 0.00 0.00 0.00 47 1016.4
20260507041532 8 0.0 0.0 0.00 0.00 0.00 48 1016.4
20260507040525 9 0.0 0.0 0.00 0.00 0.00 44 1016.5
20260507035521 9 0.0 0.0 0.00 0.00 0.00 45 1016.5
20260507034517 10 0.0 0.0 0.00 0.00 0.00 44 1016.5
20260507033531 9 0.0 0.0 0.00 0.00 0.00 45 1016.6
20260507032544 10 0.0 0.0 0.00 0.00 0.00 40 1016.7
20260507031519 10 0.0 0.0 0.00 0.00 0.00 41 1016.6
20260507030527 11 0.0 0.0 0.00 0.00 0.00 40 1016.6
20260507025536 11 0.0 0.0 0.00 0.00 0.00 39 1016.5
20260507024520 11 0.0 0.0 0.00 0.00 0.00 38 1016.4
20260507023531 11 0.0 0.0 0.00 0.00 0.00 38 1016.3
20260507022526 12 0.0 0.0 0.00 0.00 0.00 37 1016.3
20260507021522 12 0.0 0.0 0.00 0.00 0.00 35 1016.4
20260507020521 13 0.0 0.0 0.00 0.00 0.00 33 1016.4
20260507015531 13 0.0 0.0 0.00 0.00 0.00 31 1016.4
20260507014524 15 0.0 0.0 0.00 0.00 0.00 29 1016.3
20260507013520 15 0.0 0.0 0.00 0.00 0.00 26 1016.2
20260507012527 16 0.0 0.0 0.00 0.00 0.00 25 1016.3
20260507011516 16 0.0 0.0 0.00 0.00 0.00 22 1016.2
20260507010519 17 0.0 0.0 0.00 0.00 0.00 22 1016.2
20260507005532 17 0.0 0.0 0.00 0.00 0.00 22 1016.2
20260507004526 17 0.0 0.0 0.00 0.00 0.00 21 1016.2
20260507003522 17 0.0 0.0 0.00 0.00 0.00 20 1016.4
20260507002517 18 0.0 0.0 0.00 0.00 0.00 20 1016.4
20260507001531 18 0.0 0.0 0.00 0.00 0.00 19 1016.5
20260507000525 19 0.0 0.0 0.00 0.00 0.00 19 1016.6
20260506235520 19 0.0 0.0 0.00 0.00 0.00 19 1016.7
20260506234527 20 0.0 0.0 0.00 0.00 0.00 19 1016.7
20260506233517 20 0.0 0.0 0.00 0.00 0.00 19 1016.8
20260506232517 18 0.0 0.0 0.00 0.00 0.00 20 1016.8
20260506231531 19 248 0.0 4.8 0.00 0.00 0.00 19 1016.9
20260506230528 20 315 0.0 4.8 0.00 0.00 0.00 19 1016.9
20260506225548 18 0.0 0.0 0.00 0.00 0.00 20 1017.0
20260506224531 18 0.0 0.0 0.00 0.00 0.00 19 1017.1
20260506223522 20 0.0 0.0 0.00 0.00 0.00 19 1017.2
20260506222533 18 0.0 0.0 0.00 0.00 0.00 21 1017.3
20260506221523 18 0.0 0.0 0.00 0.00 0.00 21 1017.4
20260506220523 18 324 1.6 16.1 0.00 0.00 0.00 21 1017.4
20260506215518 18 270 0.0 4.8 0.00 0.00 0.00 21 1017.4
20260506214532 18 0.0 0.0 0.00 0.00 0.00 21 1017.4
20260506213546 17 0.0 0.0 0.00 0.00 0.00 21 1017.7
20260506212524 18 0.0 0.0 0.00 0.00 0.00 21 1017.9
20260506211558 11 293 0.0 9.7 0.00 0.00 0.00 20 1017.9
20260506210533 18 0.0 0.0 0.00 0.00 0.00 21 1018.0
20260506205528 18 290 3.2 35.4 0.00 0.00 0.00 21 1018.1
20260506204521 18 0.0 0.0 0.00 0.00 0.00 21 1018.3
20260506203516 18 0.0 0.0 0.00 0.00 0.00 21 1018.4
20260506202524 17 270 1.6 12.9 0.00 0.00 0.00 23 1018.6
20260506201541 17 293 0.0 4.8 0.00 0.00 0.00 23 1018.7
20260506200518 17 270 1.6 8.0 0.00 0.00 0.00 22 1018.7
20260506195550 17 0.0 0.0 0.00 0.00 0.00 24 1018.7
20260506194525 17 270 0.0 4.8 0.00 0.00 0.00 23 1018.8
20260506193545 17 270 1.6 25.7 0.00 0.00 0.00 24 1018.9
20260506192519 17 293 1.6 12.9 0.00 0.00 0.00 23 1018.7
20260506191532 17 281 3.2 17.7 0.00 0.00 0.00 23 1018.9
20260506190549 17 232 1.6 16.1 0.00 0.00 0.00 24 1018.9
20260506185548 16 270 0.0 4.8 0.00 0.00 0.00 25 1019.1
20260506184520 17 270 0.0 12.9 0.00 0.00 0.00 23 1019.2
20260506183529 17 282 1.6 12.9 0.00 0.00 0.00 24 1019.4
20260506182538 16 270 1.6 9.7 0.00 0.00 0.00 25 1019.3
20260506181518 16 270 1.6 12.9 0.00 0.00 0.00 25 1019.4
20260506180552 16 270 0.0 4.8 0.00 0.00 0.00 26 1019.7
20260506175527 15 0.0 0.0 0.00 0.00 0.00 27 1019.8
20260506174544 15 0.0 0.0 0.00 0.00 0.00 27 1019.8
20260506173523 16 0.0 0.0 0.00 0.00 0.00 26 1019.9
20260506172551 15 0.0 0.0 0.00 0.00 0.00 27 1020.1
20260506171549 15 0.0 0.0 0.00 0.00 0.00 27 1020.1
20260506170603 15 315 1.6 4.8 0.00 0.00 0.00 28 1020.2
20260506165517 15 270 1.6 20.9 0.00 0.00 0.00 27 1020.3
20260506164525 14 312 1.6 4.8 0.00 0.00 0.00 29 1020.3
20260506163526 15 0.0 0.0 0.00 0.00 0.00 28 1020.4
20260506162520 14 315 0.0 4.8 0.00 0.00 0.00 28 1020.3
20260506161532 14 0.0 0.0 0.00 0.00 0.00 29 1020.3
20260506160535 15 0.0 0.0 0.00 0.00 0.00 29 1020.2
20260506155525 14 0.0 0.0 0.00 0.00 0.00 29 1020.1
20260506154521 13 0.0 0.0 0.00 0.00 0.00 30 1020.1
20260506153535 13 315 0.0 4.8 0.00 0.00 0.00 30 1020.2
20260506152528 14 0.0 0.0 0.00 0.00 0.00 30 1020.1
20260506151524 15 0.0 0.0 0.00 0.00 0.00 29 1020.2
20260506150520 14 0.0 0.0 0.00 0.00 0.00 30 1020.2
20260506145610 15 0.0 0.0 0.00 0.00 0.00 30 1020.2
20260506144520 15 0.0 0.0 0.00 0.00 0.00 29 1020.2
20260506143520 15 0.0 0.0 0.00 0.00 0.00 30 1020.2
20260506142537 14 0.0 0.0 0.00 0.00 0.00 30 1020.1
20260506141530 14 0.0 0.0 0.00 0.00 0.00 31 1020.1
20260506140525 13 0.0 0.0 0.00 0.00 0.00 34 1020.0
20260506135523 13 0.0 0.0 0.00 0.00 0.00 34 1020.0
20260506134538 12 0.0 0.0 0.00 0.00 0.00 34 1019.9
20260506133533 12 0.0 0.0 0.00 0.00 0.00 35 1019.8
20260506132546 12 0.0 0.0 0.00 0.00 0.00 36 1019.6
20260506131522 12 0.0 0.0 0.00 0.00 0.00 38 1019.4
20260506130548 11 0.0 0.0 0.00 0.00 0.00 39 1019.5
20260506125518 10 0.0 0.0 0.00 0.00 0.00 41 1019.4
20260506124519 10 0.0 0.0 0.00 0.00 0.00 43 1019.3
20260506123533 8 0.0 0.0 0.00 0.00 0.00 45 1019.0
20260506122531 8 0.0 0.0 0.00 0.00 0.00 47 1018.8
20260506121524 8 0.0 0.0 0.00 0.00 0.00 49 1018.6
20260506120521 7 0.0 0.0 0.00 0.00 0.00 53 1018.5
20260506115536 5 0.0 0.0 0.00 0.00 0.00 56 1018.4
20260506114532 5 0.0 0.0 0.00 0.00 0.00 56 1018.4
20260506113526 5 0.0 0.0 0.00 0.00 0.00 54 1018.4
20260506112522 5 0.0 0.0 0.00 0.00 0.00 53 1018.2
20260506111533 5 0.0 0.0 0.00 0.00 0.00 53 1018.0
20260506110524 6 0.0 0.0 0.00 0.00 0.00 50 1018.2
20260506105515 6 0.0 0.0 0.00 0.00 0.00 50 1018.2
20260506104518 6 0.0 0.0 0.00 0.00 0.00 48 1018.2
20260506103532 7 0.0 0.0 0.00 0.00 0.00 46 1018.0
20260506102528 7 0.0 0.0 0.00 0.00 0.00 46 1018.0
20260506101523 7 0.0 0.0 0.00 0.00 0.00 44 1017.9
20260506100542 8 0.0 0.0 0.00 0.00 0.00 43 1017.8
20260506095543 8 0.0 0.0 0.00 0.00 0.00 43 1017.7
20260506094543 8 0.0 0.0 0.00 0.00 0.00 42 1017.7
20260506093539 8 0.0 0.0 0.00 0.00 0.00 41 1017.7
20260506092526 8 0.0 0.0 0.00 0.00 0.00 41 1017.3
20260506091518 8 0.0 0.0 0.00 0.00 0.00 41 1017.2
20260506090540 9 0.0 0.0 0.00 0.00 0.00 40 1017.2
20260506085534 9 0.0 0.0 0.00 0.00 0.00 39 1017.2
20260506084529 9 0.0 0.0 0.00 0.00 0.00 38 1017.1